Location: Johnson City
(36.3130°N, 82.3540°W)
Time: 22:56:30
(UTC-05:00)

OTV 5 (USA 277) - Pass Details

Date: 25 January 2018
Orbit: 404 x 417 km, 43.0° (Epoch: 07 September)

Event Time Altitude Azimuth Distance (km) Brightness Sun altitude
Rises 19:19:17 0° 269° (W) 2,348 ? -18.3°
Reaches altitude 10° 19:21:30 10° 279° (W) 1,486 ? -18.8°
Maximum altitude 19:24:37 34° 346° (NNW) 707 ? -19.4°
Enters shadow 19:24:54 33° 358° (N) 718 ? -19.5°
